This demonstration page uses our WeatherBlox Daily Observations layout. Learn more.

Left ArrowRight Arrow

31.31129, -92.44514

Hourly Observations for December 20, 2021

Temp ( °F °C ) Dew Point ( °F °C ) Humidity (%) Winds ( mph kmh ) Pressure ( in mb ) Visibility ( mi km ) Precip ( " mm )
12:53 am 00:53 Clear 40 4.4 34 1.1 79 79 NE 5 7 30.23 1024 10 16 0.00 0.00
1:53 am 01:53 Partly Cloudy 40 4.4 34 1.1 79 79 NE 7 11 30.23 1024 10 16 0.00 0.00
2:53 am 02:53 Clear 40 4.4 34 1.1 79 79 NE 5 7 30.23 1024 10 16 0.00 0.00
3:53 am 03:53 Cloudy 41 5 34 1.1 76 76 NE 6 9 30.23 1024 10 16 0.00 0.00
4:53 am 04:53 Cloudy 41 5 34 1.1 76 76 NNE 5 7 30.23 1024 10 16 0.00 0.00
5:53 am 05:53 Cloudy 41 5 35 1.7 79 79 NNW 6 9 30.22 1023 10 16 0.00 0.00
6:53 am 06:53 Cloudy 41 5 35 1.7 79 79 N 8 13 30.22 1023 10 16 0.00 0.00
7:53 am 07:53 Cloudy 41 5 35 1.7 79 79 NNW 6 9 30.23 1024 10 16 0.00 0.00
8:53 am 08:53 Cloudy with Light Rain 41 5 36 2.2 82 82 N 5 7 30.27 1025 5 8 0.01 0.25
9:44 am 09:44 Cloudy with Light Rain 41 5 38 3.3 89 89 N 6 9 30.24 1024 6 10 0.04 1.02
9:53 am 09:53 Cloudy with Light Rain 41 5 38 3.3 89 89 N 9 15 30.24 1024 6 10 0.04 1.02
10:35 am 10:35 Cloudy with Light Rain 41 5 37 2.8 86 86 NW 8 13 30.25 1024 5 8 0.01 0.25
10:53 am 10:53 Cloudy with Light Rain 41 5 38 3.3 89 89 N 6 9 30.25 1024 6 10 0.02 0.51
11:36 am 11:36 Cloudy with Light Rain 42 5.6 38 3.3 85 85 NNW 3 6 30.24 1024 6 10 0.03 0.76
11:53 am 11:53 Cloudy with Light Rain 42 5.6 39 3.9 89 89 NNW 6 9 30.24 1024 7 11 0.03 0.76
12:53 pm 12:53 Cloudy 44 6.7 39 3.9 83 83 N 3 6 30.23 1024 8 13 0.00 0.00
1:23 pm 13:23 Cloudy with Light Rain 43 6.1 39 3.9 86 86 NNE 5 7 30.19 1022 4 6 0.00 0.00
1:53 pm 13:53 Cloudy 44 6.7 39 3.9 83 83 ENE 6 9 30.20 1023 7 11 0.00 0.00
2:53 pm 14:53 Cloudy 45 7.2 40 4.4 83 83 NE 3 6 30.17 1022 8 13 0.00 0.00
3:53 pm 15:53 Cloudy 45 7.2 41 5 86 86 NNE 5 7 30.18 1022 9 14 0.00 0.00
4:02 pm 16:02 Cloudy 45 7.2 41 5 86 86 NNE 5 7 30.17 1022 9 14 0.00 0.00
4:53 pm 16:53 Cloudy 45 7.2 41 5 86 86 NNE 6 9 30.17 1022 9 14 0.00 0.00
5:53 pm 17:53 Cloudy 45 7.2 40 4.4 83 83 NE 5 7 30.18 1022 10 16 0.00 0.00
6:04 pm 18:04 Cloudy 45 7.2 41 5 86 86 NNE 5 7 30.16 1021 10 16 0.00 0.00
6:33 pm 18:33 Cloudy 44 6.7 40 4.4 85 85 NE 7 11 30.16 1021 10 16 0.00 0.00
6:53 pm 18:53 Cloudy 44 6.7 40 4.4 85 85 N 6 9 30.18 1022 10 16 0.00 0.00
7:30 pm 19:30 Cloudy 44 6.7 39 3.9 83 83 NNE 6 9 30.18 1022 10 16 0.00 0.00
7:53 pm 19:53 Cloudy 44 6.7 40 4.4 85 85 N 6 9 30.19 1022 10 16 0.00 0.00
8:09 pm 20:09 Cloudy 44 6.7 39 3.9 83 83 NNE 6 9 30.17 1022 10 16 0.00 0.00
8:36 pm 20:36 Cloudy 44 6.7 39 3.9 83 83 N 6 9 30.17 1022 10 16 0.00 0.00
8:53 pm 20:53 Cloudy 44 6.7 39 3.9 83 83 NNE 7 11 30.18 1022 10 16 0.00 0.00
9:53 pm 21:53 Cloudy 43 6.1 39 3.9 86 86 N 6 9 30.19 1022 10 16 0.00 0.00
10:53 pm 22:53 Cloudy 43 6.1 38 3.3 82 82 N 5 7 30.18 1022 10 16 0.00 0.00
11:53 pm 23:53 Cloudy 43 6.1 39 3.9 86 86 N 6 9 30.18 1022 9 14 0.00 0.00

Powered by AerisWeather